Overview Statistics Trail Chart Weather Telemetry Raw packets
 

This is the latest recevied weather packets stored in our database for station/object KC5TIL. If no packets are shown the sender has not sent any weather packets the latest 10 day(s).

<< 7 8 9 10 11 12 13 >>
Time Temp. Humidity Pressure Rain* Wind** Luminosity Snow
1788558507 37.78° C 41% 1011.7 hPa 0 mm - 428 W/m² -
1788558202 37.78° C 42% 1011.6 hPa 0 mm - 402 W/m² -
1788557900 38.33° C 40% 1011.7 hPa 0 mm - 458 W/m² -
1788557596 38.33° C 38% 1011.9 hPa 0 mm - 465 W/m² -
1788557291 37.78° C 42% 1012 hPa 0 mm - 489 W/m² -
1788556986 37.78° C 42% 1012.1 hPa 0 mm - 514 W/m² -
1788556681 38.33° C 39% 1012.2 hPa 0 mm - 503 W/m² -
1788556375 37.78° C 40% 1012.4 hPa 0 mm - 530 W/m² -
1788556071 37.22° C 43% 1012.4 hPa 0 mm - 149 W/m² -
1788555765 38.33° C 40% 1012.5 hPa 0 mm - 459 W/m² -
1788555461 38.33° C 39% 1012.6 hPa 0 mm - 477 W/m² -
1788555157 37.78° C 41% 1012.8 hPa 0 mm - 552 W/m² -
1788554853 37.78° C 43% 1012.7 hPa 0 mm - 553 W/m² -
1788554549 38.33° C 44% 1012.8 hPa 0 mm - 155 W/m² -
1788554245 37.78° C 43% 1012.9 hPa 0 mm - 601 W/m² -
1788553941 37.22° C 43% 1013 hPa 0 mm - 585 W/m² -
1788553637 37.22° C 45% 1013 hPa 0 mm - 534 W/m² -
1788553333 37.22° C 44% 1012.9 hPa 0 mm - 477 W/m² -
1788553028 37.78° C 43% 1013 hPa 0 mm - 491 W/m² -
1788552728 37.78° C 42% 1013 hPa 0 mm - 554 W/m² -
1788552423 37.22° C 45% 1013.2 hPa 0 mm - 603 W/m² -
1788552117 37.22° C 43% 1013.3 hPa 0 mm - 189 W/m² -
1788551815 38.33° C 42% 1013.3 hPa 0 mm - 625 W/m² -
1788551510 37.78° C 42% 1013.5 hPa 0 mm - 613 W/m² -
1788551210 37.22° C 45% 1013.5 hPa 0 mm - 606 W/m² -

* Rain latest hour (hover to see other rain measurements)
** Current wind speed in m/s (hover to see current wind gust speed)